Regional Weather Roundup
Issued by NWS Cleveland, OH

Home | Current Version | Previous Version | Graphics & Text | Print | Product List | Glossary On
Versions: 1 2 3 4 5 6 7 8 9 10 11 12 13 14 15 16 17 18 19 20 21 22 23 24 25 26 27 28 29 30 31 32 33 34 35 36 37 38 39 40 41 42 43 44 45 46 47 48 49 50
000
ASUS41 KCLE 280912
RWRCLE
OHIO REGIONAL WEATHER ROUNDUP
NATIONAL WEATHER SERVICE WILMINGTON, OH
500 AM EDT WED JUN 28 2017

NOTE: "FAIR" INDICATES FEW OR NO CLOUDS BELOW 12,000 FEET WITH NO
SIGNIFICANT WEATHER AND/OR OBSTRUCTIONS TO VISIBILITY.

OHZ001>008-015>018-024>027-034-035-043-044-281000-
   NORTHWEST OHIO

CITY           SKY/WX    TMP DP  RH WIND       PRES   REMARKS
DEFIANCE       FAIR      49  47  93 CALM      30.11S
FINDLAY        FAIR      55  46  71 S3        30.11S
TOLEDO EXPRESS FAIR      49  49 100 CALM      30.11R
TOLEDO EXEC    FAIR      54  50  86 CALM      30.12R
LIMA           FAIR      55  47  74 S5        30.13R
$$

OHZ009>014-019>023-028>033-038-089-281000-
   NORTHEAST OHIO

CITY           SKY/WX    TMP DP  RH WIND       PRES   REMARKS
CLE-HOPKINS    FAIR      57  46  66 SW6       30.13R
CLE-LAKEFRONT  FAIR      61  45  55 SW14      30.10R
CUY CO. ARPT   NOT AVBL
LORAIN-ELYRIA  FAIR      54  44  69 SW8       30.12R
ASHTABULA      FAIR      55  47  74 SW5       30.11R
AKRON-CANTON   FAIR      54  44  69 SW5       30.14R
WOOSTER        FAIR      53  46  77 SW3       30.14R
MANSFIELD      FAIR      55  45  68 SW6       30.14R
YOUNGSTOWN     FAIR      52  44  74 SW6       30.12R
$$

OHZ042-051>053-060>062-070>072-077>081-281000-
  SOUTHWEST OHIO

CITY           SKY/WX    TMP DP  RH WIND       PRES   REMARKS
CINC-COVINGTON FAIR      53  50  89 CALM      30.13S
CINC-LUNKEN    FAIR      52  52 100 CALM      30.15S
HAMILTON       FAIR      50  49  96 CALM      30.15S FOG
DAYTON         FAIR      57  46  66 S5        30.14F
WRIGHT-PAT AFB FAIR      53  51  93 E3        30.13F
DAYTON GENERAL FAIR      55  48  77 S3        30.13S
WILMINGTON     FAIR      52  51  97 CALM      30.14S
$$

OHZ036-037-039>041-045>050-054>059-063>069-073>076-082>088-281000-
  CENTRAL AND SOUTHEAST OHIO

CITY           SKY/WX    TMP DP  RH WIND       PRES   REMARKS
COLUMBUS       FAIR      52  49  89 CALM      30.13F
OSU AIRPORT    FAIR      52  48  86 CALM      30.14S
BOLTON FIELD   FAIR      50  48  93 SW3       30.15S
RICKENBACK AFB FAIR      52  49  92 S3        30.14S
NEWARK         FAIR      48  45  89 CALM      30.14S
MARION         FAIR      52  45  77 S6        30.14S
LANCASTER      FAIR      49  48  97 S3        30.15S
ZANESVILLE     FAIR      50  47  89 CALM      30.15R
NEW PHILLY     FAIR      49  48  97 SE3       30.16R
$$




USA.gov is the U.S. government's official web portal to all federal, state and local government web resources and services.